Location: Fiennes
(50.8274°N, 1.8253°E)
Time: 03:38:08
(UTC+00:00)

USA 186 - Pass Details

Date: 15 May 2026
Orbit: 338 x 359 km, 97.0° (Epoch: 19 May)

Event Time Altitude Azimuth Distance (km) Brightness Sun altitude
Exits shadow 21:12:57 - 200° (SSW) 1,312 3.9 -12.2°
Reaches altitude 10° 21:13:03 10° 201° (SSW) 1,274 3.9 -12.2°
Maximum altitude 21:15:28 28° 263° (W) 686 3.2 -12.4°
Drops below altitude 10° 21:17:54 10° 325° (NW) 1,297 5.8 -12.7°
Sets 21:19:59 0° 338° (NNW) 2,141 7.0 -12.8°
